This is the latest recevied weather packets stored in our database for station/object W0VI. If no packets are shown the sender has not sent any weather packets the latest 1 day(s).
| Time | Temp. | Humidity | Pressure | Rain* | Wind** | Luminosity | Snow |
|---|---|---|---|---|---|---|---|
| 1778025586 | 8.89° C | 43% | 1011.2 hPa | 0 mm | 2.24 m/s, 340° | 66 W/m² | - |
| 1778025284 | 8.89° C | 43% | 1011 hPa | 0 mm | 2.68 m/s, 301° | 72 W/m² | - |
| 1778024981 | 8.89° C | 42% | 1010.9 hPa | 0 mm | 3.13 m/s, 286° | 84 W/m² | - |
| 1778024678 | 8.89° C | 42% | 1011 hPa | 0 mm | 2.24 m/s, 264° | 122 W/m² | - |
| 1778024374 | 8.89° C | 42% | 1011 hPa | 0 mm | 1.79 m/s, 257° | 82 W/m² | - |
| 1778024072 | 9.44° C | 41% | 1010.7 hPa | 0 mm | 4.02 m/s, 287° | 95 W/m² | - |
| 1778023770 | 9.44° C | 41% | 1010.5 hPa | 0 mm | 1.79 m/s, 322° | 105 W/m² | - |
| 1778023468 | 8.89° C | 42% | 1010.8 hPa | 0 mm | 1.34 m/s, 312° | 120 W/m² | - |
| 1778023164 | 8.89° C | 42% | 1010.6 hPa | 0 mm | 2.68 m/s, 273° | 84 W/m² | - |
| 1778022862 | 8.89° C | 42% | 1010.6 hPa | 0 mm | 2.24 m/s, 21° | 82 W/m² | - |
| 1778022560 | 9.44° C | 42% | 1010.6 hPa | 0 mm | 1.79 m/s, 332° | 89 W/m² | - |
| 1778022262 | 8.89° C | 42% | 1010.7 hPa | 0 mm | 1.79 m/s, 305° | 101 W/m² | - |
| 1778021953 | 8.89° C | 41% | 1010.7 hPa | 0 mm | 3.58 m/s, 296° | 98 W/m² | - |
| 1778021652 | 9.44° C | 40% | 1010.5 hPa | 0 mm | 1.34 m/s, 359° | 116 W/m² | - |
| 1778021352 | 8.89° C | 41% | 1010.5 hPa | 0 mm | 1.79 m/s, 20° | 120 W/m² | - |
| 1778021049 | 9.44° C | 41% | 1010.6 hPa | 0 mm | 1.79 m/s, 291° | 132 W/m² | - |
| 1778020746 | 8.89° C | 41% | 1010.6 hPa | 0 mm | 1.79 m/s, 304° | 129 W/m² | - |
| 1778020443 | 9.44° C | 41% | 1010.6 hPa | 0 mm | 1.79 m/s, 331° | 99 W/m² | - |
| 1778020139 | 8.89° C | 41% | 1010.5 hPa | 0 mm | 3.13 m/s, 312° | 119 W/m² | - |
| 1778019836 | 8.89° C | 41% | 1010.7 hPa | 0 mm | 2.24 m/s, 263° | 113 W/m² | - |
| 1778019532 | 8.89° C | 40% | 1010.6 hPa | 0 mm | 3.58 m/s, 345° | 121 W/m² | - |
| 1778019229 | 8.89° C | 42% | 1010.6 hPa | 0 mm | 1.34 m/s, 264° | 123 W/m² | - |
| 1778018926 | 8.89° C | 41% | 1010.5 hPa | 0 mm | 3.13 m/s, 291° | 149 W/m² | - |
| 1778018623 | 8.89° C | 42% | 1010.8 hPa | 0 mm | 0.89 m/s, 320° | 142 W/m² | - |
| 1778018321 | 8.89° C | 41% | 1010.5 hPa | 0 mm | 2.24 m/s, 295° | 152 W/m² | - |
* Rain latest hour (hover to see other rain measurements)
** Current wind speed in m/s (hover to see current wind gust speed)